FW3157 Weather Reports


Display with metric or nautical units.
time (UTC)temp
F
wind
direction
speed
MPH
gust
MPH
rain 1hr
in
rain 24hr
in
rain mn
in
humidity
%
barometer
mb
20260906111101 94 285 6.0 11.0 0.00 0.00 0.00 34 1017.2
20260906110558 93 301 5.0 12.0 0.00 0.00 0.00 35 1017.3
20260906110058 93 309 5.0 12.0 0.00 0.00 0.00 36 1017.2
20260906105558 94 312 5.0 10.0 0.00 0.00 0.00 33 1017.3
20260906105545 93 294 6.0 10.0 0.00 0.00 0.00 34 1017.4
20260906104558 93 289 6.0 10.0 0.00 0.00 0.00 34 1017.3
20260906104058 93 307 5.0 10.0 0.00 0.00 0.00 34 1017.4
20260906103559 93 285 5.0 10.0 0.00 0.00 0.00 33 1017.4
20260906103058 92 298 5.0 10.0 0.00 0.00 0.00 35 1017.4
20260906102558 92 304 6.0 10.0 0.00 0.00 0.00 34 1017.5
20260906102100 92 304 5.0 10.0 0.00 0.00 0.00 36 1017.5
20260906101558 92 342 6.0 11.0 0.00 0.00 0.00 37 1017.5
20260906101058 92 290 6.0 11.0 0.00 0.00 0.00 35 1017.5
20260906100817 92 295 5.0 10.0 0.00 0.00 0.00 36 1017.6
20260906100058 92 276 5.0 10.0 0.00 0.00 0.00 36 1017.6
20260906095558 91 283 5.0 10.0 0.00 0.00 0.00 37 1017.6
20260906095058 91 285 6.0 10.0 0.00 0.00 0.00 36 1017.6
20260906094552 91 292 5.0 10.0 0.00 0.00 0.00 37 1017.7
20260906094310 91 303 6.0 10.0 0.00 0.00 0.00 36 1017.7
20260906093806 90 264 6.0 9.0 0.00 0.00 0.00 37 1017.7
20260906093034 90 284 6.0 9.0 0.00 0.00 0.00 37 1017.8
20260906092528 90 296 6.0 11.0 0.00 0.00 0.00 40 1017.8
20260906092245 90 276 6.0 11.0 0.00 0.00 0.00 37 1017.8
20260906091741 90 251 6.0 9.0 0.00 0.00 0.00 37 1017.8
20260906091010 90 300 6.0 12.0 0.00 0.00 0.00 36 1017.9
20260906090727 89 311 7.0 12.0 0.00 0.00 0.00 36 1017.9
20260906090222 89 356 7.0 11.0 0.00 0.00 0.00 36 1017.9
20260906085451 89 302 6.0 10.0 0.00 0.00 0.00 36 1017.9
20260906085209 89 296 7.0 11.0 0.00 0.00 0.00 38 1017.9
20260906084439 88 309 7.0 12.0 0.00 0.00 0.00 39 1017.9
20260906083933 88 304 7.0 12.0 0.00 0.00 0.00 38 1017.9
20260906083429 88 310 7.0 11.0 0.00 0.00 0.00 38 1017.9
20260906082928 88 295 7.0 12.0 0.00 0.00 0.00 39 1018.0
20260906082428 87 304 6.0 12.0 0.00 0.00 0.00 39 1018.0
20260906081929 87 333 6.0 10.0 0.00 0.00 0.00 38 1018.0
20260906081428 87 318 6.0 11.0 0.00 0.00 0.00 39 1018.0
20260906080928 87 335 6.0 13.0 0.00 0.00 0.00 39 1018.0
20260906080428 86 298 7.0 13.0 0.00 0.00 0.00 39 1018.0
20260906075928 86 313 7.0 13.0 0.00 0.00 0.00 39 1017.9
20260906075905 86 297 7.0 13.0 0.00 0.00 0.00 40 1018.0
20260906074928 86 304 7.0 13.0 0.00 0.00 0.00 40 1018.0
20260906074428 86 319 7.0 14.0 0.00 0.00 0.00 40 1018.0
20260906074151 85 314 6.0 14.0 0.00 0.00 0.00 40 1017.9
20260906073644 85 340 5.0 12.0 0.00 0.00 0.00 40 1017.9
20260906072927 85 297 6.0 13.0 0.00 0.00 0.00 40 1017.8
20260906072427 85 321 6.0 13.0 0.00 0.00 0.00 41 1017.8
20260906071928 84 304 5.0 11.0 0.00 0.00 0.00 41 1017.8
20260906071429 84 293 5.0 11.0 0.00 0.00 0.00 42 1017.8
20260906070922 83 310 4.0 9.0 0.00 0.00 0.00 45 1017.8
20260906070415 83 304 4.0 8.0 0.00 0.00 0.00 49 1017.7
20260906065916 82 309 4.0 7.0 0.00 0.00 0.00 50 1017.6
20260906065416 80 305 4.0 7.0 0.00 0.00 0.00 54 1017.6
20260906064916 79 298 3.0 6.0 0.00 0.00 0.00 58 1017.6
20260906064416 78 320 2.0 5.0 0.00 0.00 0.00 61 1017.6
20260906063915 77 309 3.0 5.0 0.00 0.00 0.00 64 1017.6
20260906063416 76 275 4.0 8.0 0.00 0.00 0.00 67 1017.6
20260906062916 76 279 5.0 8.0 0.00 0.00 0.00 67 1017.5
20260906062413 76 276 4.0 8.0 0.00 0.00 0.00 66 1017.5
20260906061914 75 266 4.0 7.0 0.00 0.00 0.00 67 1017.4
20260906061414 75 300 4.0 8.0 0.00 0.00 0.00 67 1017.4
20260906061138 75 295 3.0 8.0 0.00 0.00 0.00 68 1017.3
20260906060414 75 300 3.0 6.0 0.00 0.00 0.00 66 1017.4
20260906060131 75 266 3.0 6.0 0.00 0.00 0.00 65 1017.3
20260906055641 76 297 3.0 6.0 0.00 0.00 0.00 63 1017.3
20260906054911 75 293 2.0 5.0 0.00 0.00 0.00 63 1017.4
20260906054638 75 277 2.0 3.0 0.00 0.00 0.00 62 1017.4
20260906053912 75 307 2.0 3.0 0.00 0.00 0.00 63 1017.3
20260906053640 74 294 2.0 3.0 0.00 0.00 0.00 63 1017.4
20260906052909 74 356 2.0 3.0 0.00 0.00 0.00 65 1017.3
20260906052632 74 304 1.0 3.0 0.00 0.00 0.00 67 1017.3
20260906051910 74 342 1.0 3.0 0.00 0.00 0.00 69 1017.3
20260906051636 73 302 2.0 4.0 0.00 0.00 0.00 71 1017.3
20260906050909 73 261 1.0 4.0 0.00 0.00 0.00 72 1017.2
20260906050410 73 274 2.0 4.0 0.00 0.00 0.00 74 1017.2
20260906045906 73 281 2.0 4.0 0.00 0.00 0.00 75 1017.1
20260906045406 72 277 3.0 7.0 0.00 0.00 0.00 76 1017.1
20260906044906 72 255 4.0 8.0 0.00 0.00 0.00 76 1017.1
20260906044406 73 276 4.0 8.0 0.00 0.00 0.00 73 1016.9
20260906043905 74 240 2.0 7.0 0.00 0.00 0.00 70 1016.9
20260906043405 74 277 1.0 7.0 0.00 0.00 0.00 70 1016.9
20260906042906 74 124 1.0 1.0 0.00 0.00 0.00 68 1016.5
20260906042405 74 124 0.0 1.0 0.00 0.00 0.00 70 1016.4
20260906041905 73 257 0.0 1.0 0.00 0.00 0.00 70 1016.4
20260906041400 73 257 0.0 1.0 0.00 0.00 0.00 70 1016.3
20260906040853 73 257 0.0 2.0 0.00 0.00 0.00 70 1016.4
20260906040347 73 257 0.0 2.0 0.00 0.00 0.00 70 1016.3
20260906035840 73 257 1.0 2.0 0.00 0.00 0.00 70 1016.2
20260906035335 74 257 1.0 2.0 0.00 0.00 0.00 70 1016.2
20260906034829 74 271 1.0 3.0 0.00 0.00 0.00 69 1016.2
20260906034323 74 271 2.0 3.0 0.00 0.00 0.00 69 1016.2
20260906034044 74 276 2.0 4.0 0.00 0.00 0.00 69 1016.1
20260906033311 74 269 1.0 4.0 0.00 0.00 0.00 69 1016.1
20260906032805 74 266 0.0 3.0 0.00 0.00 0.00 69 1016.1
20260906032502 74 212 0.0 2.0 0.00 0.00 0.00 66 1016.0
20260906032349 74 212 0.0 1.0 0.00 0.00 0.00 67 1016.1
20260906031247 75 212 0.0 2.0 0.00 0.00 0.00 66 1016.0
20260906030741 75 228 1.0 2.0 0.00 0.00 0.00 68 1016.0
20260906030235 75 228 1.0 3.0 0.00 0.00 0.00 67 1015.9
20260906025729 75 265 0.0 3.0 0.00 0.00 0.00 64 1015.9
20260906025223 75 347 0.0 1.0 0.00 0.00 0.00 57 1015.8
20260906024716 74 349 0.0 0.0 0.00 0.00 0.00 56 1015.8
20260906024211 74 349 0.0 0.0 0.00 0.00 0.00 56 1015.8
20260906023705 75 349 0.0 0.0 0.00 0.00 0.00 54 1015.8
20260906023159 75 349 0.0 0.0 0.00 0.00 0.00 53 1015.7
20260906022653 75 349 0.0 0.0 0.00 0.00 0.00 53 1015.7
20260906022146 75 349 0.0 1.0 0.00 0.00 0.00 52 1015.7
20260906021641 75 349 0.0 1.0 0.00 0.00 0.00 52 1015.6
20260906021135 76 349 0.0 1.0 0.00 0.00 0.00 52 1015.7
20260906020629 76 349 0.0 1.0 0.00 0.00 0.00 51 1015.6
20260906020122 76 349 1.0 1.0 0.00 0.00 0.00 50 1015.7
20260906015616 76 347 1.0 1.0 0.00 0.00 0.00 50 1015.6
20260906015111 76 334 0.0 1.0 0.00 0.00 0.00 50 1015.6
20260906014605 76 334 0.0 1.0 0.00 0.00 0.00 49 1015.7
20260906014059 76 334 0.0 1.0 0.00 0.00 0.00 49 1015.7
20260906013552 76 334 0.0 1.0 0.00 0.00 0.00 49 1015.8
20260906013309 76 334 0.0 1.0 0.00 0.00 0.00 48 1015.8
20260906012540 76 334 0.0 1.0 0.00 0.00 0.00 48 1015.7
20260906012035 76 334 0.0 1.0 0.00 0.00 0.00 48 1015.7
20260906011529 76 334 0.0 2.0 0.00 0.00 0.00 47 1015.7
20260906011023 76 334 1.0 2.0 0.00 0.00 0.00 47 1015.7
20260906010739 76 334 1.0 2.0 0.00 0.00 0.00 50 1015.7
20260906010011 76 85 0.0 1.0 0.00 0.00 0.00 50 1015.7
20260906005504 76 85 0.0 1.0 0.00 0.00 0.00 51 1015.7
20260906004958 76 85 0.0 1.0 0.00 0.00 0.00 51 1015.7
20260906004452 76 85 0.0 1.0 0.00 0.00 0.00 50 1015.7
20260906003947 76 85 0.0 1.0 0.00 0.00 0.00 50 1015.6
20260906003441 76 85 0.0 2.0 0.00 0.00 0.00 49 1015.7
20260906002934 76 85 0.0 2.0 0.00 0.00 0.00 49 1015.7
20260906002429 76 86 0.0 0.0 0.00 0.00 0.00 48 1015.6
20260906001923 76 85 0.0 2.0 0.00 0.00 0.00 48 1015.7
20260906001416 77 85 1.0 2.0 0.00 0.00 0.00 48 1015.7
20260906000910 77 86 1.0 3.0 0.00 0.00 0.00 47 1015.7
20260906000407 77 7 1.0 3.0 0.00 0.00 0.00 46 1015.7
20260905235859 78 352 0.0 1.0 0.00 0.00 0.00 46 1015.6
20260905235353 78 352 0.0 1.0 0.00 0.00 0.00 47 1015.6
20260905234847 77 352 0.0 1.0 0.00 0.00 0.00 47 1015.6
20260905234342 77 352 0.0 1.0 0.00 0.00 0.00 47 1015.6
20260905233834 77 352 0.0 1.0 0.00 0.00 0.00 47 1015.8
20260905233328 77 352 0.0 1.0 0.00 0.00 0.00 46 1015.9
20260905232829 78 350 1.0 3.0 0.00 0.00 0.00 47 1015.8
20260905232329 78 352 1.0 3.0 0.00 0.00 0.00 46 1015.9
20260905231829 79 302 1.0 3.0 0.00 0.00 0.00 45 1015.9
20260905231327 79 98 1.0 2.0 0.00 0.00 0.00 44 1015.8
20260905230825 79 98 2.0 3.0 0.00 0.00 0.00 43 1015.7
20260905230323 79 98 2.0 4.0 0.00 0.00 0.00 43 1015.8
20260905225821 79 92 2.0 4.0 0.00 0.00 0.00 43 1015.8
20260905225319 79 100 1.0 3.0 0.00 0.00 0.00 43 1015.9
20260905224817 79 101 2.0 3.0 0.00 0.00 0.00 43 1015.9
20260905224316 79 98 2.0 3.0 0.00 0.00 0.00 43 1015.9
20260905223813 79 101 1.0 2.0 0.00 0.00 0.00 44 1016.0
20260905223312 79 101 0.0 1.0 0.00 0.00 0.00 45 1016.0
20260905222813 79 101 0.0 1.0 0.00 0.00 0.00 45 1016.0
20260905222312 79 101 0.0 2.0 0.00 0.00 0.00 45 1016.0
20260905222126 79 101 0.0 2.0 0.00 0.00 0.00 45 1016.0
20260905222027 80 101 0.0 1.0 0.00 0.00 0.00 44 1015.9
20260905220813 80 101 0.0 3.0 0.00 0.00 0.00 43 1015.8
20260905220311 80 101 1.0 3.0 0.00 0.00 0.00 42 1015.8
20260905215809 80 123 1.0 3.0 0.00 0.00 0.00 43 1015.8
20260905215310 80 73 1.0 2.0 0.00 0.00 0.00 44 1015.8
20260905214804 79 74 1.0 2.0 0.00 0.00 0.00 44 1015.9
20260905214301 79 74 1.0 2.0 0.00 0.00 0.00 44 1016.0
20260905213801 80 73 1.0 3.0 0.00 0.00 0.00 44 1016.0
20260905213301 80 70 1.0 4.0 0.00 0.00 0.00 44 1016.1
20260905212758 81 101 1.0 4.0 0.00 0.00 0.00 42 1016.1
20260905212259 81 113 3.0 5.0 0.00 0.00 0.00 41 1016.2
20260905212235 81 101 4.0 5.0 0.00 0.00 0.00 40 1016.1
20260905211259 81 99 3.0 5.0 0.00 0.00 0.00 41 1016.1
20260905210759 81 103 2.0 4.0 0.00 0.00 0.00 42 1016.1
20260905210257 81 98 2.0 3.0 0.00 0.00 0.00 41 1016.2
20260905205756 81 113 1.0 2.0 0.00 0.00 0.00 43 1016.2
20260905205513 81 113 1.0 2.0 0.00 0.00 0.00 43 1016.3
20260905204755 81 113 1.0 1.0 0.00 0.00 0.00 44 1016.2
20260905204254 81 113 0.0 1.0 0.00 0.00 0.00 44 1016.3
20260905203755 81 113 0.0 2.0 0.00 0.00 0.00 43 1016.3
20260905203253 82 113 1.0 3.0 0.00 0.00 0.00 41 1016.3
20260905202753 82 113 2.0 5.0 0.00 0.00 0.00 41 1016.3
20260905202253 82 115 3.0 5.0 0.00 0.00 0.00 40 1016.2
20260905202018 82 96 3.0 5.0 0.00 0.00 0.00 40 1016.2
20260905201504 82 113 3.0 6.0 0.00 0.00 0.00 41 1016.2
20260905200740 82 111 4.0 6.0 0.00 0.00 0.00 42 1016.2
20260905200453 82 113 4.0 7.0 0.00 0.00 0.00 42 1016.2
20260905200211 82 115 5.0 8.0 0.00 0.00 0.00 42 1016.2
20260905195223 82 94 4.0 8.0 0.00 0.00 0.00 43 1016.2
20260905194717 82 114 3.0 8.0 0.00 0.00 0.00 43 1016.2
20260905194211 82 113 2.0 5.0 0.00 0.00 0.00 44 1016.2
20260905193704 82 109 3.0 6.0 0.00 0.00 0.00 44 1016.2
20260905193159 82 91 3.0 7.0 0.00 0.00 0.00 44 1016.2
20260905192659 82 107 4.0 7.0 0.00 0.00 0.00 44 1016.3
20260905192159 82 98 4.0 7.0 0.00 0.00 0.00 44 1016.3
20260905191658 82 117 4.0 6.0 0.00 0.00 0.00 44 1016.3
20260905191427 82 113 4.0 6.0 0.00 0.00 0.00 44 1016.3
20260905190659 82 95 3.0 5.0 0.00 0.00 0.00 44 1016.3
20260905190156 82 82 3.0 5.0 0.00 0.00 0.00 43 1016.3
20260905185657 82 91 2.0 5.0 0.00 0.00 0.00 42 1016.3
20260905185157 83 79 2.0 5.0 0.00 0.00 0.00 42 1016.3
20260905184657 83 108 3.0 5.0 0.00 0.00 0.00 42 1016.3
20260905184156 83 96 3.0 6.0 0.00 0.00 0.00 42 1016.3
20260905183657 83 107 3.0 6.0 0.00 0.00 0.00 42 1016.2
20260905183155 83 93 3.0 5.0 0.00 0.00 0.00 42 1016.1
20260905182655 83 103 3.0 5.0 0.00 0.00 0.00 42 1016.1
20260905182155 83 120 2.0 5.0 0.00 0.00 0.00 42 1016.0
20260905181628 83 104 2.0 6.0 0.00 0.00 0.00 42 1015.9
20260905181129 83 180 2.0 6.0 0.00 0.00 0.00 41 1015.9
20260905180628 84 124 2.0 6.0 0.00 0.00 0.00 40 1016.0
20260905180129 84 102 2.0 6.0 0.00 0.00 0.00 40 1015.9
20260905175847 84 59 2.0 5.0 0.00 0.00 0.00 40 1015.9
20260905175129 84 146 2.0 5.0 0.00 0.00 0.00 41 1015.8
20260905174628 84 119 2.0 5.0 0.00 0.00 0.00 41 1015.7
20260905174128 84 85 3.0 6.0 0.00 0.00 0.00 40 1015.7
20260905173628 84 237 3.0 6.0 0.00 0.00 0.00 40 1015.7
20260905173129 84 149 2.0 5.0 0.00 0.00 0.00 41 1015.6
20260905172628 85 150 2.0 5.0 0.00 0.00 0.00 42 1015.6
20260905172129 85 113 2.0 4.0 0.00 0.00 0.00 43 1015.6
20260905171850 85 120 2.0 6.0 0.00 0.00 0.00 42 1015.6
20260905171130 85 108 2.0 8.0 0.00 0.00 0.00 41 1015.6
20260905170629 85 235 3.0 8.0 0.00 0.00 0.00 40 1015.6
20260905170129 86 171 3.0 8.0 0.00 0.00 0.00 41 1015.5
20260905165629 86 154 2.0 6.0 0.00 0.00 0.00 41 1015.5
20260905165128 87 143 2.0 8.0 0.00 0.00 0.00 41 1015.5
20260905164629 87 132 3.0 8.0 0.00 0.00 0.00 40 1015.4
20260905164129 88 131 3.0 7.0 0.00 0.00 0.00 39 1015.3
20260905163625 88 199 2.0 7.0 0.00 0.00 0.00 40 1015.3
20260905163125 89 153 2.0 6.0 0.00 0.00 0.00 43 1015.4
20260905162622 89 143 2.0 6.0 0.00 0.00 0.00 40 1015.4
20260905162123 89 165 3.0 9.0 0.00 0.00 0.00 40 1015.2
20260905161623 89 229 3.0 9.0 0.00 0.00 0.00 38 1015.3
20260905161354 89 165 3.0 7.0 0.00 0.00 0.00 39 1015.4
20260905160621 90 181 2.0 7.0 0.00 0.00 0.00 38 1015.4
20260905160118 90 206 2.0 6.0 0.00 0.00 0.00 38 1015.3
20260905155618 90 237 2.0 6.0 0.00 0.00 0.00 38 1015.3
20260905155118 90 110 2.0 6.0 0.00 0.00 0.00 40 1015.3
20260905154620 89 228 3.0 9.0 0.00 0.00 0.00 41 1015.4
20260905154117 89 243 4.0 9.0 0.00 0.00 0.00 41 1015.3
20260905153616 89 232 4.0 8.0 0.00 0.00 0.00 42 1015.3
20260905153116 89 208 3.0 8.0 0.00 0.00 0.00 42 1015.3
20260905152616 89 243 3.0 8.0 0.00 0.00 0.00 44 1015.3
20260905152341 89 138 4.0 9.0 0.00 0.00 0.00 43 1015.3
20260905151615 89 208 5.0 9.0 0.00 0.00 0.00 43 1015.3
20260905151114 90 231 3.0 9.0 0.00 0.00 0.00 43 1015.2
20260905150607 90 262 3.0 9.0 0.00 0.00 0.00 44 1015.2
20260905145556 90 206 4.0 9.0 0.00 0.00 0.00 40 1015.2
20260905145049 91 223 3.0 8.0 0.00 0.00 0.00 40 1015.2
20260905144543 92 206 2.0 8.0 0.00 0.00 0.00 35 1015.3
20260905144306 92 262 1.0 4.0 0.00 0.00 0.00 39 1015.2
20260905143531 92 259 2.0 4.0 0.00 0.00 0.00 36 1015.3
20260905143027 91 248 2.0 6.0 0.00 0.00 0.00 34 1015.4
20260905142520 90 209 3.0 8.0 0.00 0.00 0.00 36 1015.4
20260905142014 90 237 3.0 8.0 0.00 0.00 0.00 37 1015.5
20260905141732 90 205 3.0 8.0 0.00 0.00 0.00 41 1015.5
20260905141002 89 231 4.0 8.0 0.00 0.00 0.00 40 1015.5
20260905140455 90 236 4.0 8.0 0.00 0.00 0.00 43 1015.5
20260905135950 90 232 4.0 8.0 0.00 0.00 0.00 36 1015.6
20260905135444 90 252 3.0 7.0 0.00 0.00 0.00 38 1015.6
20260905135207 90 209 4.0 9.0 0.00 0.00 0.00 36 1015.6
20260905134431 90 233 3.0 8.0 0.00 0.00 0.00 36 1015.7
20260905133926 90 220 3.0 7.0 0.00 0.00 0.00 34 1015.7
20260905133420 90 271 4.0 8.0 0.00 0.00 0.00 35 1015.8
20260905132914 89 258 5.0 8.0 0.00 0.00 0.00 36 1015.9
20260905132408 89 267 5.0 8.0 0.00 0.00 0.00 36 1015.9
20260905131901 90 292 4.0 9.0 0.00 0.00 0.00 33 1016.0
20260905131623 90 175 4.0 9.0 0.00 0.00 0.00 33 1016.0
20260905130850 91 224 3.0 7.0 0.00 0.00 0.00 31 1016.1
20260905130603 90 253 3.0 7.0 0.00 0.00 0.00 32 1016.1
20260905125838 91 314 3.0 7.0 0.00 0.00 0.00 34 1016.2
20260905125816 91 214 3.0 7.0 0.00 0.00 0.00 32 1016.2
20260905124826 90 234 4.0 9.0 0.00 0.00 0.00 33 1016.2
20260905124320 89 227 4.0 9.0 0.00 0.00 0.00 32 1016.3
20260905123814 89 288 4.0 8.0 0.00 0.00 0.00 34 1016.4
20260905123307 89 255 4.0 8.0 0.00 0.00 0.00 36 1016.5
20260905123246 89 261 4.0 8.0 0.00 0.00 0.00 36 1016.5
20260905122256 89 236 4.0 7.0 0.00 0.00 0.00 38 1016.5
20260905121749 89 236 4.0 8.0 0.00 0.00 0.00 36 1016.6
20260905121244 89 266 4.0 8.0 0.00 0.00 0.00 37 1016.6
20260905120738 89 238 4.0 8.0 0.00 0.00 0.00 34 1016.6
20260905120232 88 215 4.0 7.0 0.00 0.00 0.00 36 1016.9
20260905115725 88 285 3.0 7.0 0.00 0.00 0.00 38 1017.0
20260905115220 88 248 4.0 7.0 0.00 0.00 0.00 39 1017.0
20260905114715 88 268 4.0 7.0 0.00 0.00 0.00 39 1017.1
20260905114214 88 224 4.0 7.0 0.00 0.00 0.00 39 1017.1
20260905113714 88 250 4.0 8.0 0.00 0.00 0.00 42 1017.2
20260905113214 88 240 5.0 8.0 0.00 0.00 0.00 42 1017.2
20260905112712 88 251 4.0 7.0 0.00 0.00 0.00 39 1017.2
20260905112212 88 266 3.0 6.0 0.00 0.00 0.00 37 1017.2
20260905111714 87 257 3.0 6.0 0.00 0.00 0.00 35 1017.2
20260905111214 87 266 4.0 6.0 0.00 0.00 0.00 41 1017.3